Home   Weather   Antioch   Past weeks
Flag for USA

Past Weather in Antioch, California, USA — Yesterday and Last 2 Weeks

Now
94 °F

Sunny.


Feels Like: 91 °F
Forecast: 92 / 62 °F
Wind: 14 mph from West

Location: Buchanan Field

Current Time: Jul 22, 2019 at 6:08:58 pm

Latest Report: Jul 22, 2019 at 4:53 pm


Visibility: 10 mi

Pressure: 29.85 "Hg

Humidity: 25%

Dew Point: 53 °F

Location of AntiochLocation

Past Weather in Antioch — Graph

°F

Antioch Temperature Yesterday

Maximum temperature yesterday: 87 °F (at 2:53 pm)
Minimum temperature yesterday: 58 °F (at 5:53 am)
Average temperature yesterday: 72 °F

High & Low Weather Summary for the Past Weeks

 TemperatureHumidityPressure
High95 °F (Jul 13, 3:53 pm)81% (Jul 12, 5:53 am)30.10 "Hg (Jul 12, 5:53 am)
Low58 °F (Jul 8, 1:53 am)24% (Jul 13, 3:53 pm)29.78 "Hg (Jul 12, 6:53 pm)
Average72 °F55%29.88 "Hg
* Reported Jul 7 4:53 pm — Jul 22 4:53 pm, Antioch. Weather by CustomWeather, © 2019

Note: Actual official high and low records may vary slightly from our data, if they occured in-between our weather recording intervals... More about our weather records

Advertising

Antioch Weather History for the Previous 24 Hours

Scroll right to see more
 ConditionsComfort  
Time TempWeatherWind HumidityBarometerVisibility
4:53 pm
Mon, Jul 22
94 °FSunny.14 mph25%29.85 "Hg10 mi
3:53 pm94 °FSunny.16 mph26%29.85 "Hg10 mi
2:53 pm93 °FSunny.15 mph26%29.86 "Hg10 mi
1:53 pm91 °FSunny.14 mph28%29.88 "Hg10 mi
12:53 pm86 °FSunny.10 mph32%29.89 "Hg10 mi
11:53 am83 °FSunny.12 mph40%29.90 "Hg10 mi
10:53 am80 °FSunny.7 mph44%29.90 "Hg10 mi
9:53 am74 °FSunny.9 mph53%29.90 "Hg10 mi
8:53 am72 °FSunny.No wind55%29.90 "Hg10 mi
7:53 am67 °FSunny.N/A61%29.90 "Hg10 mi
6:53 am62 °FSunny.No wind70%29.89 "Hg10 mi
5:53 am60 °FClear.3 mph78%29.88 "Hg10 mi
4:53 am60 °FClear.6 mph78%29.87 "Hg10 mi
3:53 am61 °FClear.5 mph75%29.86 "Hg10 mi
2:53 am63 °FClear.6 mph73%29.85 "Hg10 mi
1:53 am66 °FClear.5 mph63%29.86 "Hg10 mi
12:53 am70 °FClear.5 mph44%29.86 "Hg10 mi
11:53 pm
Sun, Jul 21
70 °FClear.3 mph51%29.87 "Hg10 mi
10:53 pm70 °FClear.6 mph49%29.87 "Hg10 mi
9:53 pm73 °FClear.5 mph44%29.86 "Hg10 mi
8:53 pm74 °FClear.7 mph48%29.83 "Hg10 mi
7:53 pm83 °FSunny.7 mph33%29.83 "Hg10 mi
6:53 pm87 °FSunny.7 mph30%29.81 "Hg10 mi
Weather by CustomWeather, © 2019

See weather overview